Powrót do katalogu

SL-8 DEB *

AktywnyLEO
NORAD 14808·DEBRIS·🇷🇺 Russia

Wystrzelony Jul 1, 1980 z Plesetsk Cosmodrome

Loading…

Następne Przeloty (najbliższe 24 godziny)

TLE

ŚwieżeSource: Space-Track

Epoka: Sep 14, 2026, 00:25 UTC

1 14808U 80056C   26257.01788205  .00000737  00000-0  19549-3 0  9991
2 14808  74.0345  98.6979 0012102  34.6569 117.3805 14.50415441241824

Śledź SL-8 DEB * w czasie rzeczywistym z AllMySat

Download on the App Store